Flag for Taiwan Weather past 2 weeks in Kaohsiung, Taiwan

Now
84 °F

Broken clouds.


Feels Like: 94 °F
Forecast: 78 / 88 °F
Wind: 9 mph from Southwest

Location: Kaohsiung International Airport

Current Time: Sep 22, 2014 at 5:25:06 PM

Latest Report: Sep 22, 2014 at 5:00 PM


Visibility: N/A

Pressure: 29.71 "Hg

Humidity: 79%

Dew point: 77 °F

Location of KaohsiungLocation

Historic Weather in Kaohsiung — Graph

°F

Kaohsiung temperature yesterday

Maximum temperature yesterday: 81 °F (at 10:30 AM)
Minimum temperature yesterday: 75 °F (at 4:00 AM)
Average temperature yesterday: 79 °F

Past Weeks' High & Low Weather Summary

 TemperatureHumidityPressure
High99 °F (Sep 15, 12:30 PM)100% (Sep 12, 6:00 AM)29.95 "Hg (Sep 12, 6:00 AM)
Low75 °F (Sep 21, 4:00 AM)42% (Sep 15, 12:00 PM)29.27 "Hg (Sep 21, 11:30 AM)
Average85 °F81%29.73 "Hg
* Reported Sep 7 4:00 PM — Sep 22 4:30 PM, Kaohsiung, Weather by CustomWeather, © 2014

Note: Actual official high and low records may vary slightly from our data, if they occured in-between our weather recording intervals... More about our weather records

Advertising

Kaohsiung weather history for previous 24 hours

 ConditionsComfort  
Time TempWeatherWind HumidityBarometerVisibility
4:30 PM
Sep 22
86 °FBroken clouds.10 mph70%29.71 "HgN/A
4:00 PM86 °FBroken clouds.12 mph70%29.68 "HgN/A
3:30 PM86 °FBroken clouds.10 mph70%29.68 "HgN/A
3:00 PM88 °FBroken clouds.8 mph66%29.68 "HgN/A
2:30 PM88 °FScattered clouds.8 mph66%29.68 "HgN/A
2:00 PM90 °FScattered clouds.7 mph59%29.68 "HgN/A
1:30 PM88 °FScattered clouds.6 mph66%29.68 "HgN/A
1:00 PM88 °FScattered clouds.7 mph70%29.68 "HgN/A
12:30 PM86 °FBroken clouds.6 mph66%29.71 "HgN/A
12:00 PM86 °FPartly sunny.6 mph66%29.71 "HgN/A
11:30 AM86 °FPartly sunny.7 mph75%29.74 "HgN/A
11:00 AM86 °FPartly sunny.6 mph66%29.74 "HgN/A
10:30 AM86 °FPartly sunny.3 mph70%29.74 "HgN/A
10:00 AM84 °FBroken clouds.6 mph70%29.74 "HgN/A
9:30 AM82 °FPartly sunny.7 mph79%29.74 "HgN/A
9:00 AM81 °FBroken clouds.7 mph84%29.74 "HgN/A
8:00 AM77 °FPartly sunny.5 mph94%29.71 "HgN/A
7:30 AM77 °FSprinkles. Partly sunny.6 mph94%29.71 "HgN/A
7:00 AM77 °FSprinkles. Partly sunny.5 mph94%29.71 "Hg3 mi
6:30 AM77 °FScattered showers. Partly sunny.3 mph94%29.71 "HgN/A
6:00 AM77 °FPartly sunny.5 mph89%29.71 "HgN/A
5:00 AM77 °FPassing clouds.5 mph94%29.71 "HgN/A
4:00 AM77 °FPartly cloudy.6 mph94%29.68 "Hg5 mi
3:00 AM77 °FPassing clouds.6 mph94%29.68 "Hg5 mi
2:00 AM77 °FPassing clouds.6 mph94%29.71 "HgN/A
1:00 AM77 °FPassing clouds.3 mph89%29.71 "Hg5 mi
12:00 AM79 °FPassing clouds.7 mph84%29.71 "HgN/A
11:46 PM
Sep 21
79 °FPassing clouds.7 mph84%29.71 "HgN/A
11:30 PM79 °FSprinkles. Passing clouds.9 mph84%29.71 "Hg6 mi
11:00 PM79 °FSprinkles. Passing clouds.9 mph89%29.71 "Hg6 mi
10:47 PM79 °FSprinkles. Passing clouds.9 mph89%29.71 "Hg5 mi
10:00 PM79 °FSprinkles. Passing clouds.15 mph89%29.71 "Hg5 mi
9:30 PM79 °FSprinkles. Partly cloudy.17 mph94%29.68 "Hg4 mi
9:00 PM79 °FSprinkles. Partly cloudy.17 mph94%29.68 "Hg4 mi
8:30 PM79 °FSprinkles. Partly cloudy.16 mph94%29.68 "Hg4 mi
8:00 PM79 °FSprinkles. Overcast.18 mph94%29.65 "Hg4 mi
7:56 PM79 °FSprinkles. Overcast.18 mph94%29.65 "Hg4 mi
7:30 PM79 °FSprinkles. Overcast.16 mph94%29.65 "Hg4 mi
7:00 PM79 °FSprinkles. Overcast.15 mph94%29.62 "Hg4 mi
6:30 PM79 °FSprinkles. Mostly cloudy.17 mph94%29.59 "Hg4 mi
6:00 PM79 °FSprinkles. Mostly cloudy.18 mph94%29.59 "Hg4 mi
5:00 PM79 °FSprinkles. Cloudy.20 mph94%29.56 "Hg3 mi
Weather by CustomWeather, © 2014

See weather overviewHow to use our weather pages